Weather History for Garrison, ND

Change the Weather History Date:

Monday, March 25, 2013

  Actual Average Record
Temperature  
Mean Temperature 8 °F -  
Max Temperature 20 °F 39 °F 75 °F (2007)
Min Temperature -4 °F 21 °F -4 °F (2013)
Degree Days  
Heating Degree Days 57    
Month to date heating degree days 1244  
Moisture  
Dew Point 3 °F    
Average Humidity 83    
Maximum Humidity 92    
Minimum Humidity 73    
Precipitation  
Precipitation 0.00 in - - ()
Month to date precipitation 0.95  
Year to date precipitation 2.04  
Sea Level Pressure  
Sea Level Pressure 30.46 in    
Wind  
Wind Speed 8 mph (NNW)    
Max Wind Speed 14 mph    
Max Gust Speed 16 mph    
Averages and records for this station are not official NWS values.
T = Trace of Precipitation, MM = Missing Value Source: NWS Daily Summary

Daily Weather History Graph

Daily Weather History Graph

Search for Another Location

Airport:

Trip Planner

Search our weather history database for the weather conditions in past years. The results will help you decide how hot, cold, wet, or windy it might be!

Date:

Astronomy

Mar. 25, 2013 Rise Set
Actual Time 7:37 AM CDT 8:06 PM CDT
Civil Twilight 7:07 AM CDT 8:37 PM CDT
Nautical Twilight 6:30 AM CDT 9:13 PM CDT
Astronomical Twilight 5:52 AM CDT 9:51 PM CDT
Moon 6:36 PM CDT (3/25) 6:28 AM CDT (3/25)
Length of Visible Light 13h 30m
Length of Day
12h 28m
Waxing Gibbous, 96% of the Moon is Illuminated
Mar 25
Waxing Gibbous
Mar 27
Full
Apr 2
Last Quarter
Apr 10
New
Apr 18
First Quarter

Hourly Weather History & Observations

Time (CDT) Temp. Windchill Dew Point Humidity Pressure Visibility Wind Dir Wind Speed Gust Speed Precip Events Conditions
12:52 AM -0.9 °F -19.1 °F -4.0 °F 87% 30.44 in - NW 12.7 mph - N/A   Unknown
1:52 AM -0.0 °F -17.1 °F -2.9 °F 88% 30.45 in - NW 11.5 mph - N/A   Unknown
2:52 AM -0.9 °F -19.1 °F -4.0 °F 87% 30.46 in - NW 12.7 mph - N/A   Unknown
3:52 AM -0.9 °F -18.3 °F -4.0 °F 87% 30.45 in - NW 11.5 mph - N/A   Unknown
4:52 AM -2.0 °F -15.4 °F -6.0 °F 83% 30.45 in - NW 6.9 mph - N/A   Unknown
5:52 AM -2.0 °F -18.7 °F -6.0 °F 83% 30.46 in - NW 10.4 mph - N/A   Unknown
6:52 AM -2.9 °F -17.7 °F -7.1 °F 82% 30.47 in - NW 8.1 mph - N/A   Unknown
7:52 AM -2.9 °F - -6.0 °F 87% 30.48 in - Calm Calm - N/A   Unknown
8:52 AM -0.0 °F -16.3 °F -4.0 °F 83% 30.50 in - NW 10.4 mph - N/A   Unknown
9:52 AM 1.9 °F -12.9 °F -2.0 °F 83% 30.51 in - NW 9.2 mph - N/A   Unknown
10:52 AM 6.1 °F -7.8 °F 3.0 °F 87% 30.51 in - NNW 9.2 mph - N/A   Unknown
11:52 AM 9.0 °F -3.2 °F 6.1 °F 88% 30.51 in - NW 8.1 mph - N/A   Unknown
12:52 PM 10.0 °F -0.9 °F 7.0 °F 87% 30.50 in - WNW 6.9 mph - N/A   Unknown
1:52 PM 12.9 °F 5.2 °F 10.0 °F 88% 30.49 in - NW 4.6 mph - N/A   Unknown
2:52 PM 17.1 °F 7.6 °F 12.9 °F 84% 30.48 in - NNW 6.9 mph - N/A   Unknown
3:52 PM 18.0 °F 8.7 °F 12.9 °F 81% 30.46 in - NNW 6.9 mph - N/A   Unknown
4:52 PM 19.9 °F 12.1 °F 14.0 °F 78% 30.45 in - North 5.8 mph - N/A   Unknown
5:52 PM 19.0 °F 12.3 °F 12.9 °F 77% 30.44 in - NNW 4.6 mph - N/A   Unknown
6:52 PM 19.0 °F 13.9 °F 12.0 °F 74% 30.44 in - NNE 3.5 mph - N/A   Unknown
7:52 PM 10.9 °F 2.9 °F 8.1 °F 88% 30.44 in - East 4.6 mph - N/A   Unknown
8:52 PM 10.9 °F - 8.1 °F 88% 30.42 in - Calm Calm - N/A   Unknown
9:52 PM 7.0 °F - 3.9 °F 87% 30.43 in - Calm Calm - N/A   Unknown
10:52 PM 6.1 °F -0.9 °F 3.0 °F 87% 30.43 in - East 3.5 mph - N/A   Unknown
11:52 PM 3.9 °F - -0.0 °F 84% 30.41 in - Calm Calm - N/A   Unknown